Starlink 30517

operational
NORAD ID: 57995 Int'l Des: 2023-153 Owner: SPXS Country: US Constellation: starlink
LEOCIRCULAR

Starlink 30517について

説明を読み込み中...

リアルタイム位置

3D地球を読み込み中...

次回通過

高度履歴

Altitude vs Time

uPlot chart will show altitude changes over time

軌道要素

1 57995U 23153E 25304.64971352 -.00000489 00000-0 -21124-4 0 9997
2 57995 43.0044 50.0652 0001868 270.8310 89.2318 15.02530686115468
Epoch: Oct 31, 2025 • Age: 17 hours

現在のステータス

高度 569.4 km
速度 7.58 km/s
衛星直下点 -38.59°S, 174.16°E
打ち上げ日 Oct 5, 2023
運用期間 2 years
タイプ internet

技術仕様

分類 Payload
質量 730.00 kg
乾燥質量 700.00 kg
総質量 730.00 kg
長さ 0.30 m
直径 4.10 m
スパン 29.00 m
形状 Box + pan
製造者 SPXS
バスタイプ Starlink V2M
フェーズステータス In Orbit
所有者/国 SPXS/US

大規模コンステレーション

Loading constellations...